TimeCDT,TemperatureF,Dew PointF,Humidity,Sea Level PressureIn,VisibilityMPH,Wind Direction,Wind SpeedMPH,Gust SpeedMPH,PrecipitationIn,Events,Conditions,WindDirDegrees,DateUTC
12:15 AM,57.2,55.4,94,30.10,10.0,Calm,Calm,-,N/A,,Clear,0,2013-09-16 05:15:00
12:35 AM,57.2,55.4,94,30.11,10.0,Calm,Calm,-,N/A,,Clear,0,2013-09-16 05:35:00
12:55 AM,57.2,55.4,94,30.11,9.0,Calm,Calm,-,N/A,,Clear,0,2013-09-16 05:55:00
1:15 AM,57.2,55.4,94,30.11,10.0,SSE,3.5,-,N/A,,Clear,160,2013-09-16 06:15:00
1:35 AM,57.2,55.4,94,30.11,10.0,Calm,Calm,-,N/A,,Clear,0,2013-09-16 06:35:00
1:55 AM,57.2,55.4,94,30.11,10.0,Calm,Calm,-,N/A,,Clear,0,2013-09-16 06:55:00
2:15 AM,57.2,55.4,94,30.10,10.0,Calm,Calm,-,N/A,,Clear,0,2013-09-16 07:15:00
2:35 AM,57.2,55.4,94,30.10,10.0,Calm,Calm,-,N/A,,Clear,0,2013-09-16 07:35:00
2:55 AM,57.2,55.4,94,30.10,10.0,Calm,Calm,-,N/A,,Clear,0,2013-09-16 07:55:00
3:15 AM,55.4,55.4,100,30.10,3.0,Calm,Calm,-,N/A,,Clear,0,2013-09-16 08:15:00
3:35 AM,55.4,55.4,100,30.10,10.0,Calm,Calm,-,N/A,,Clear,0,2013-09-16 08:35:00
3:55 AM,57.2,55.4,94,30.10,10.0,SSE,4.6,-,N/A,,Clear,150,2013-09-16 08:55:00
4:15 AM,55.4,53.6,94,30.10,10.0,North,3.5,-,N/A,,Clear,10,2013-09-16 09:15:00
4:35 AM,55.4,53.6,94,30.10,10.0,Calm,Calm,-,N/A,,Clear,0,2013-09-16 09:35:00
4:55 AM,55.4,53.6,94,30.10,10.0,Calm,Calm,-,N/A,,Clear,0,2013-09-16 09:55:00
5:15 AM,55.4,53.6,94,30.10,4.0,Calm,Calm,-,N/A,,Clear,0,2013-09-16 10:15:00
5:35 AM,55.4,53.6,94,30.11,2.5,Calm,Calm,-,N/A,,Clear,0,2013-09-16 10:35:00
5:55 AM,55.4,53.6,94,30.12,10.0,Calm,Calm,-,N/A,,Clear,0,2013-09-16 10:55:00
6:15 AM,55.4,53.6,94,30.12,10.0,Calm,Calm,-,N/A,,Clear,0,2013-09-16 11:15:00
6:35 AM,55.4,53.6,94,30.13,10.0,Calm,Calm,-,N/A,,Clear,0,2013-09-16 11:35:00
6:55 AM,55.4,53.6,94,30.14,10.0,Calm,Calm,-,N/A,,Clear,0,2013-09-16 11:55:00
7:15 AM,55.4,53.6,94,30.15,10.0,Calm,Calm,-,N/A,,Clear,0,2013-09-16 12:15:00
7:35 AM,57.2,55.4,94,30.15,10.0,Calm,Calm,-,N/A,,Clear,0,2013-09-16 12:35:00
7:55 AM,59.0,55.4,88,30.15,10.0,Calm,Calm,-,N/A,,Clear,0,2013-09-16 12:55:00
8:15 AM,60.8,57.2,88,30.15,10.0,Calm,Calm,-,N/A,,Clear,0,2013-09-16 13:15:00
8:35 AM,62.6,57.2,82,30.16,10.0,Calm,Calm,-,N/A,,Clear,0,2013-09-16 13:35:00
8:55 AM,64.4,59.0,83,30.16,10.0,Calm,Calm,-,N/A,,Clear,0,2013-09-16 13:55:00
9:15 AM,68.0,59.0,73,30.16,10.0,Calm,Calm,-,N/A,,Clear,0,2013-09-16 14:15:00
9:35 AM,71.6,60.8,69,30.16,10.0,Calm,Calm,-,N/A,,Clear,0,2013-09-16 14:35:00
9:55 AM,73.4,60.8,65,30.17,10.0,Calm,Calm,-,N/A,,Clear,0,2013-09-16 14:55:00
10:15 AM,75.2,59.0,57,30.17,10.0,East,3.5,-,N/A,,Clear,100,2013-09-16 15:15:00
10:35 AM,77.0,59.0,54,30.16,10.0,ESE,3.5,-,N/A,,Clear,120,2013-09-16 15:35:00
10:55 AM,80.6,59.0,48,30.16,10.0,ESE,3.5,-,N/A,,Clear,110,2013-09-16 15:55:00
11:15 AM,80.6,59.0,48,30.16,10.0,East,4.6,-,N/A,,Clear,80,2013-09-16 16:15:00
11:35 AM,82.4,57.2,42,30.16,10.0,ENE,3.5,-,N/A,,Clear,60,2013-09-16 16:35:00
11:55 AM,82.4,59.0,45,30.15,10.0,ENE,4.6,-,N/A,,Clear,60,2013-09-16 16:55:00
12:15 PM,84.2,59.0,42,30.15,10.0,SE,4.6,-,N/A,,Clear,130,2013-09-16 17:15:00
12:35 PM,86.0,59.0,40,30.15,10.0,SSE,3.5,-,N/A,,Clear,160,2013-09-16 17:35:00
12:55 PM,86.0,57.2,37,30.15,10.0,North,3.5,-,N/A,,Clear,360,2013-09-16 17:55:00
1:15 PM,86.0,57.2,37,30.14,10.0,NNE,8.1,-,N/A,,Clear,30,2013-09-16 18:15:00
1:35 PM,86.0,57.2,37,30.13,10.0,NNW,8.1,-,N/A,,Clear,340,2013-09-16 18:35:00
1:55 PM,86.0,57.2,37,30.13,10.0,North,6.9,-,N/A,,Clear,350,2013-09-16 18:55:00
2:15 PM,86.0,57.2,37,30.12,10.0,NW,8.1,-,N/A,,Clear,310,2013-09-16 19:15:00
2:35 PM,86.0,57.2,37,30.11,10.0,NNW,6.9,-,N/A,,Clear,340,2013-09-16 19:35:00
2:55 PM,86.0,57.2,37,30.11,10.0,NNE,6.9,-,N/A,,Clear,30,2013-09-16 19:55:00
3:15 PM,87.8,57.2,35,30.10,10.0,NNW,5.8,-,N/A,,Clear,330,2013-09-16 20:15:00
3:35 PM,86.0,53.6,33,30.10,10.0,NE,6.9,-,N/A,,Clear,50,2013-09-16 20:35:00
3:55 PM,86.0,53.6,33,30.10,10.0,North,5.8,-,N/A,,Clear,10,2013-09-16 20:55:00
4:15 PM,86.0,50.0,29,30.10,10.0,NNE,5.8,-,N/A,,Clear,20,2013-09-16 21:15:00
4:35 PM,86.0,55.4,35,30.10,10.0,NNE,8.1,-,N/A,,Clear,20,2013-09-16 21:35:00
4:55 PM,86.0,55.4,35,30.10,10.0,North,5.8,-,N/A,,Clear,10,2013-09-16 21:55:00
5:15 PM,84.2,55.4,37,30.10,10.0,NNE,6.9,-,N/A,,Clear,30,2013-09-16 22:15:00
5:35 PM,84.2,57.2,40,30.10,10.0,NE,10.4,-,N/A,,Clear,40,2013-09-16 22:35:00
5:55 PM,82.4,57.2,42,30.10,10.0,NE,8.1,-,N/A,,Clear,40,2013-09-16 22:55:00
6:15 PM,80.6,59.0,48,30.10,10.0,NNE,5.8,-,N/A,,Clear,30,2013-09-16 23:15:00
6:35 PM,78.8,59.0,51,30.10,10.0,NE,5.8,-,N/A,,Clear,40,2013-09-16 23:35:00
6:55 PM,77.0,59.0,54,30.09,10.0,NE,4.6,-,N/A,,Clear,40,2013-09-16 23:55:00
7:15 PM,75.2,59.0,57,30.09,10.0,NNE,4.6,-,N/A,,Clear,30,2013-09-17 00:15:00
7:35 PM,73.4,60.8,65,30.10,10.0,Calm,Calm,-,N/A,,Clear,0,2013-09-17 00:35:00
7:55 PM,73.4,60.8,65,30.10,10.0,Calm,Calm,-,N/A,,Clear,0,2013-09-17 00:55:00
8:15 PM,71.6,60.8,69,30.11,10.0,North,4.6,-,N/A,,Clear,360,2013-09-17 01:15:00
8:35 PM,71.6,60.8,69,30.12,10.0,North,3.5,-,N/A,,Clear,350,2013-09-17 01:35:00
8:55 PM,71.6,60.8,69,30.12,10.0,North,4.6,-,N/A,,Clear,350,2013-09-17 01:55:00
9:15 PM,71.6,60.8,69,30.12,10.0,North,3.5,-,N/A,,Clear,360,2013-09-17 02:15:00
9:35 PM,71.6,62.6,73,30.12,10.0,NNE,5.8,-,N/A,,Clear,30,2013-09-17 02:35:00
9:55 PM,71.6,62.6,73,30.12,10.0,NE,3.5,-,N/A,,Clear,40,2013-09-17 02:55:00
10:15 PM,69.8,64.4,83,30.13,10.0,NNE,4.6,-,N/A,,Clear,20,2013-09-17 03:15:00
10:35 PM,69.8,64.4,83,30.14,10.0,NNE,4.6,-,N/A,,Clear,30,2013-09-17 03:35:00
10:55 PM,69.8,64.4,83,30.15,10.0,NNW,4.6,-,N/A,,Clear,340,2013-09-17 03:55:00
11:15 PM,69.8,64.4,83,30.15,10.0,North,3.5,-,N/A,,Clear,350,2013-09-17 04:15:00
11:35 PM,68.0,64.4,88,30.15,10.0,North,4.6,-,N/A,,Clear,10,2013-09-17 04:35:00
11:55 PM,68.0,64.4,88,30.15,10.0,Calm,Calm,-,N/A,,Clear,0,2013-09-17 04:55:00